K5AJS Weather Reports


time (UTC)temp
F
wind
direction
speed
knots
gust
knots
rain 1hr
in
rain 24hr
in
rain mn
in
humidity
%
barometer
mb
20260502162649 69 102 1.7 3.5 0.00 0.00 0.00 58 1020.4
20260502162149 68 119 0.0 3.5 0.00 0.00 0.00 63 1020.4
20260502161650 68 52 0.9 4.3 0.00 0.00 0.00 61 1020.5
20260502161149 68 51 1.7 3.5 0.00 0.00 0.00 59 1020.5
20260502160649 68 89 0.9 2.6 0.00 0.00 0.00 60 1020.5
20260502160149 68 67 1.7 3.5 0.00 0.00 0.00 59 1020.5
20260502152149 66 99 0.9 3.5 0.00 0.00 0.00 68 1020.2
20260502151649 66 60 1.7 3.5 0.00 0.00 0.00 69 1020.2
20260502151149 66 51 2.6 4.3 0.00 0.00 0.00 70 1020.2
20260502150650 65 35 0.0 0.9 0.00 0.00 0.00 71 1020.3
20260502150149 65 188 0.0 1.7 0.00 0.00 0.00 73 1020.3
20260502130649 56 38 0.9 1.7 0.00 0.00 0.00 94 1019.2
20260502130149 55 15 0.9 1.7 0.00 0.00 0.00 94 1019.0
20260502123650 54 29 1.7 3.5 0.00 0.00 0.00 94 1018.7
20260502123153 54 27 0.0 0.9 0.00 0.00 0.00 94 1018.6
20260502122650 54 24 0.0 0.0 0.00 0.00 0.00 94 1018.6
20260502122150 54 43 0.9 1.7 0.00 0.00 0.00 94 1018.5
20260502121650 54 11 0.9 1.7 0.00 0.00 0.00 94 1018.3
20260502121150 53 13 0.9 1.7 0.00 0.00 0.00 94 1018.2
20260502120649 53 11 0.9 1.7 0.00 0.00 0.00 94 1018.1
20260502120150 53 23 0.9 1.7 0.00 0.00 0.00 94 1018.0
20260502115650 53 49 0.9 1.7 0.00 0.00 0.00 94 1018.0
20260502115150 53 24 0.0 1.7 0.00 0.00 0.00 94 1018.1
20260502114651 53 26 0.9 1.7 0.00 0.00 0.00 94 1018.1
20260502114149 53 26 0.9 1.7 0.00 0.00 0.00 94 1018.0
20260502113650 53 33 0.0 0.0 0.00 0.00 0.00 94 1017.9
20260502113149 54 15 0.9 1.7 0.00 0.00 0.00 94 1017.8
20260502112649 54 49 0.9 1.7 0.00 0.00 0.00 94 1017.7
20260502112149 54 6 0.0 0.0 0.00 0.00 0.00 94 1017.7
20260502111649 54 33 0.9 1.7 0.00 0.00 0.00 94 1017.6
20260502111150 54 24 1.7 2.6 0.00 0.00 0.00 94 1017.6
20260502110650 54 19 0.9 1.7 0.00 0.00 0.00 94 1017.5
20260502110149 54 20 0.9 1.7 0.00 0.00 0.00 94 1017.4
20260502105650 54 25 0.9 1.7 0.00 0.00 0.00 93 1017.5
20260502105150 54 24 0.9 1.7 0.00 0.00 0.00 93 1017.5
20260502104649 54 0 0.0 0.0 0.00 0.00 0.00 93 1017.5
20260502104149 54 0 0.0 0.0 0.00 0.00 0.00 92 1017.4
20260502103650 54 0 0.0 0.0 0.00 0.00 0.00 92 1017.4
20260502103149 55 0 0.0 0.0 0.00 0.00 0.00 92 1017.4
20260502102649 55 0 0.0 0.0 0.00 0.00 0.00 91 1017.3
20260502102150 55 0 0.0 0.0 0.00 0.00 0.00 91 1017.3
20260502101650 55 0 0.0 0.0 0.00 0.00 0.00 91 1017.2
20260502101150 55 12 0.0 0.0 0.00 0.00 0.00 91 1017.0
20260502100650 55 22 0.9 0.9 0.00 0.00 0.00 91 1016.9
20260502100149 55 66 0.9 1.7 0.00 0.00 0.00 91 1016.8
20260502091149 56 42 0.9 0.9 0.00 0.00 0.00 92 1015.8
20260502090651 56 64 1.7 1.7 0.00 0.00 0.00 92 1015.8
20260502090150 56 11 0.9 0.9 0.00 0.00 0.00 93 1015.8
20260502071152 57 57 1.7 2.6 0.00 0.00 0.00 93 1015.7
20260502070649 57 1 1.7 1.7 0.00 0.00 0.00 93 1015.8
20260502070149 57 65 1.7 1.7 0.00 0.00 0.00 93 1015.7
20260502065650 57 28 0.9 1.7 0.00 0.00 0.00 93 1015.6
20260502065149 57 56 0.9 1.7 0.00 0.00 0.00 93 1015.6
20260502064649 57 39 0.0 0.9 0.00 0.00 0.00 93 1015.7
20260502064149 57 39 2.6 3.5 0.00 0.00 0.00 94 1015.7
20260502063649 57 46 1.7 2.6 0.00 0.00 0.00 94 1015.7
20260502063150 57 17 0.9 1.7 0.00 0.00 0.00 94 1015.8
20260502062649 57 42 1.7 2.6 0.00 0.00 0.00 94 1015.7
20260502062149 57 107 0.9 0.9 0.00 0.00 0.00 94 1015.6
20260502061649 57 18 1.7 2.6 0.00 0.00 0.00 94 1015.6
20260502061149 57 79 1.7 1.7 0.00 0.00 0.00 95 1015.5
20260502060649 57 26 2.6 4.3 0.00 0.00 0.00 95 1015.4
20260502060150 57 13 2.6 3.5 0.00 0.00 0.00 95 1015.4
20260502055649 57 47 2.6 3.5 0.00 0.00 0.00 95 1015.3
20260502055149 57 352 1.7 2.6 0.00 0.00 0.00 95 1015.4
20260502054649 57 355 0.9 1.7 0.00 0.00 0.00 95 1015.3
20260502054149 57 49 1.7 2.6 0.00 0.00 0.00 96 1015.4
20260502053650 57 23 2.6 2.6 0.00 0.00 0.00 96 1015.4
20260502053151 57 61 0.9 1.7 0.00 0.00 0.00 96 1015.2
20260502052649 57 74 0.9 1.7 0.00 0.00 0.00 96 1015.3
20260502052149 57 53 1.7 1.7 0.00 0.00 0.00 96 1015.3
20260502051649 57 61 1.7 2.6 0.00 0.00 0.00 96 1015.2
20260502051149 57 101 0.9 1.7 0.00 0.00 0.00 96 1015.2
20260502050649 57 117 0.9 1.7 0.00 0.00 0.00 96 1015.2
20260502050149 57 41 1.7 2.6 0.00 0.00 0.00 96 1015.2
20260502045650 57 62 1.7 1.7 0.00 0.00 2.13 96 1015.2
20260502045149 57 33 1.7 1.7 0.00 0.00 2.13 96 1015.1
20260502044650 57 49 0.9 0.9 0.00 0.00 2.13 97 1015.2
20260502044149 57 56 1.7 3.5 0.00 0.00 2.13 97 1015.1
20260502043649 57 20 0.9 1.7 0.00 0.00 2.13 97 1015.1
20260502043149 57 45 1.7 3.5 0.00 0.00 2.13 97 1015.1
20260502042649 57 24 3.5 7.0 0.00 0.00 2.13 96 1015.1
20260502042150 57 36 3.5 5.2 0.00 0.00 2.13 97 1015.2
20260502041650 57 35 2.6 4.3 0.00 0.00 2.13 97 1015.4
20260502041152 57 14 0.9 1.7 0.00 0.00 2.13 97 1015.3
20260502040649 57 42 1.7 1.7 0.00 0.00 2.13 97 1015.3
20260502040149 57 42 1.7 2.6 0.00 0.00 2.13 97 1015.1
20260502035649 57 45 0.9 2.6 0.00 0.00 2.13 97 1015.0
20260502035150 57 37 0.9 1.7 0.00 0.00 2.13 97 1014.9
20260502034650 57 40 1.7 3.5 0.00 0.00 2.13 97 1015.0
20260502034151 57 26 2.6 4.3 0.00 0.00 2.13 97 1014.8
20260502033649 57 26 3.5 4.3 0.00 0.00 2.13 97 1014.9
20260502033149 57 1 1.7 2.6 0.00 0.00 2.13 97 1015.0
20260502032651 57 26 1.7 4.3 0.00 0.00 2.13 97 1014.9
20260502032149 57 54 2.6 6.1 0.00 0.00 2.13 97 1014.7
20260502031649 58 41 1.7 3.5 0.00 0.00 2.13 97 1014.6
20260502031151 58 28 3.5 5.2 0.01 0.00 2.13 98 1014.5
20260502030649 58 11 3.5 4.3 0.01 0.00 2.13 98 1014.4
20260502030149 58 44 1.7 2.6 0.01 0.00 2.13 98 1014.1
20260502025649 58 8 1.7 3.5 0.02 0.00 2.13 98 1013.9
20260502025149 59 65 1.7 2.6 0.03 0.00 2.13 98 1014.0
20260502024649 59 70 0.9 1.7 0.03 0.00 2.13 98 1013.8
20260502024149 59 92 1.7 3.5 0.03 0.00 2.13 98 1013.6
20260502023649 59 50 0.9 1.7 0.03 0.00 2.13 98 1013.4
20260502023149 59 5 0.9 1.7 0.03 0.00 2.13 98 1013.4
20260502022650 59 22 1.7 3.5 0.03 0.00 2.13 98 1013.2
20260502022149 59 24 1.7 3.5 0.03 0.00 2.13 98 1013.1
20260502021649 59 346 0.9 2.6 0.03 0.00 2.13 98 1013.1
20260502021150 59 56 1.7 1.7 0.02 0.00 2.13 98 1013.0
20260502020650 59 59 1.7 2.6 0.03 0.00 2.12 98 1012.8
20260502020149 59 58 1.7 1.7 0.03 0.00 2.12 98 1012.9
20260502015650 59 52 1.7 1.7 0.02 0.00 2.12 98 1013.1
20260502015151 59 27 1.7 2.6 0.02 0.00 2.11 98 1013.1
20260502014649 59 69 0.9 0.9 0.03 0.00 2.10 98 1013.1
20260502014150 59 47 1.7 3.5 0.03 0.00 2.10 98 1012.9
20260502013650 59 44 1.7 1.7 0.03 0.00 2.10 98 1012.9
20260502013149 59 50 0.9 1.7 0.02 0.00 2.10 98 1013.0
20260502012650 59 27 1.7 1.7 0.02 0.00 2.09 98 1012.9
20260502012149 60 34 1.7 2.6 0.02 0.00 2.08 98 1012.8
20260502011650 60 41 1.7 2.6 0.02 0.00 2.08 98 1012.8
20260502011149 60 38 1.7 2.6 0.02 0.00 2.08 98 1012.7
20260502010649 60 358 0.0 0.9 0.03 0.00 2.08 98 1012.7
20260502010149 60 55 0.9 1.7 0.03 0.00 2.09 97 1012.4
20260502005651 60 30 1.7 2.6 0.02 0.00 2.09 98 1012.1
20260502005150 60 34 1.7 3.5 0.02 0.00 2.09 98 1012.1
20260502004649 60 46 0.9 2.6 0.09 0.00 2.08 97 1012.0
20260502004149 60 51 1.7 2.6 0.11 0.00 2.07 97 1011.9
20260502003649 60 43 1.7 3.5 0.11 0.00 2.07 97 1012.1
20260502003149 60 49 0.9 1.7 0.08 0.00 2.07 97 1012.0
20260502002650 60 26 1.7 3.5 0.08 0.00 2.07 98 1011.7
20260502002149 60 59 0.9 2.6 0.08 0.00 2.01 97 1011.6
20260502001649 60 39 1.7 4.3 0.10 0.00 2.01 97 1011.5
20260502001149 60 58 1.7 4.3 0.10 0.00 2.00 97 1011.3
20260502000650 60 51 2.6 3.5 0.10 0.00 2.00 97 1011.5
20260502000149 60 66 1.7 4.3 0.10 0.00 1.99 97 1011.5
20260501235649 61 52 1.7 2.6 0.17 0.00 1.99 97 1011.4
20260501235149 61 18 1.7 2.6 0.12 0.00 2.02 97 1011.3
20260501234650 61 66 1.7 3.5 0.14 0.00 2.01 97 1011.2
20260501234150 61 60 1.7 3.5 0.17 0.00 1.98 97 1011.4
20260501233652 61 337 0.9 1.7 0.17 0.00 1.94 97 1011.9
20260501233150 61 344 1.7 2.6 0.17 0.00 1.93 97 1011.8
20260501232651 61 10 1.7 3.5 0.25 0.00 1.92 97 1010.9
20260501232150 61 68 1.7 3.5 0.25 0.00 1.97 97 1009.7
20260501231649 61 77 1.7 1.7 0.20 0.00 1.97 97 1009.4
20260501231150 62 33 1.7 2.6 0.20 0.00 1.97 97 1009.6
20260501230649 62 66 2.6 4.3 0.12 0.00 1.92 97 1009.3
20260501230149 62 45 1.7 3.5 0.13 0.00 1.87 97 1009.9
20260501225650 62 74 2.6 4.3 0.13 0.00 1.86 97 1010.7
20260501225149 62 45 3.5 5.2 0.10 0.00 1.84 97 1010.7
20260501224649 62 94 1.7 2.6 0.05 0.00 1.84 97 1010.1
20260501224150 62 98 2.6 2.6 0.05 0.00 1.83 97 1010.0
20260501223651 62 48 2.6 4.3 0.05 0.00 1.80 97 1010.0
20260501223149 62 56 3.5 5.2 0.05 0.00 1.76 97 1009.9
20260501222649 62 53 3.5 4.3 0.01 0.00 1.74 97 1010.0
20260501222150 62 71 2.6 2.6 0.03 0.00 1.67 98 1009.7
20260501221650 62 52 2.6 4.3 0.04 0.00 1.67 98 1009.9
20260501221150 62 68 2.6 3.5 0.04 0.00 1.67 98 1009.3
20260501220649 62 73 1.7 3.5 0.06 0.00 1.67 98 1009.3
20260501220150 63 244 3.5 5.2 0.06 0.00 1.66 98 1009.5
20260501215649 63 241 2.6 7.8 0.06 0.00 1.66 98 1009.6
20260501215149 63 219 3.5 5.2 0.06 0.00 1.66 98 1009.7
20260501214649 63 253 1.7 4.3 0.10 0.00 1.66 98 1010.0
20260501214149 63 233 3.5 6.1 0.10 0.00 1.66 98 1010.1
20260501213649 63 331 2.6 3.5 0.10 0.00 1.66 98 1010.3
20260501213149 63 231 2.6 3.5 0.10 0.00 1.66 98 1010.5
20260501212650 63 236 2.6 3.5 0.10 0.00 1.66 98 1010.4
20260501212150 63 254 2.6 4.3 0.10 0.00 1.64 98 1010.6
20260501211650 63 242 3.5 4.3 0.11 0.00 1.63 98 1010.2
20260501211150 63 216 2.6 5.2 0.10 0.00 1.61 98 1010.0
20260501210649 63 238 2.6 4.3 0.12 0.00 1.61 97 1010.5
20260501210149 63 226 4.3 13.0 0.13 0.00 1.61 97 1010.1
20260501205650 63 302 3.5 4.3 0.13 0.00 1.60 97 1010.0
20260501205149 63 239 0.9 1.7 0.14 0.00 1.60 97 1009.8
20260501204650 63 274 1.7 1.7 0.12 0.00 1.58 97 1009.8
20260501204150 63 234 1.7 4.3 0.11 0.00 1.57 97 1009.6
20260501203649 63 199 2.6 4.3 0.10 0.00 1.56 97 1008.3
20260501203149 63 226 2.6 5.2 0.09 0.00 1.54 97 1008.7
20260501202649 63 168 1.7 7.8 0.08 0.00 1.54 97 1009.2
20260501202149 63 226 2.6 3.5 0.08 0.00 1.53 97 1009.0
20260501201649 63 224 2.6 5.2 0.07 0.00 1.52 97 1008.6
20260501201149 63 233 3.5 6.1 0.06 0.00 1.51 97 1008.4
20260501200649 63 226 5.2 10.4 0.06 0.00 1.50 97 1008.9
20260501200149 63 207 3.5 9.6 0.07 0.00 1.49 97 1009.3
20260501195649 64 64 5.2 14.8 0.05 0.00 1.47 97 1008.9
20260501195151 64 52 4.3 8.7 0.05 0.00 1.46 97 1009.0
20260501194649 64 56 4.3 8.7 0.05 0.00 1.46 97 1009.1
20260501194150 64 61 3.5 7.8 0.05 0.00 1.46 97 1008.6
20260501193649 64 54 4.3 8.7 0.05 0.00 1.46 97 1008.7
20260501193149 64 60 4.3 11.3 0.06 0.00 1.46 97 1008.8
20260501192649 63 52 5.2 9.6 0.07 0.00 1.46 97 1008.5
20260501192151 63 51 4.3 9.6 0.07 0.00 1.44 97 1008.7
20260501191649 63 58 5.2 11.3 0.07 0.00 1.44 97 1008.8
20260501191150 63 56 4.3 9.6 0.10 0.00 1.44 97 1008.9
20260501190649 63 53 4.3 8.7 0.13 0.00 1.43 97 1009.1
20260501190150 64 51 3.5 9.6 0.13 0.00 1.41 97 1009.3
20260501185150 63 51 5.2 8.7 0.15 0.00 1.41 97 1009.8
20260501181649 64 47 5.2 9.6 0.22 0.00 1.36 97 1008.4
20260501180649 64 48 6.1 11.3 0.15 0.00 1.27 97 1010.6
20260501180149 64 48 5.2 11.3 0.14 0.00 1.35 97 1009.9
20260501175649 64 48 5.2 8.7 0.15 0.00 1.35 97 1009.2
20260501175149 64 48 6.1 13.9 0.17 0.00 1.37 97 1009.0
20260501174650 64 46 4.3 10.4 0.19 0.00 1.36 97 1009.0
20260501174150 64 47 5.2 10.4 0.33 0.00 1.32 97 1009.5
20260501173649 64 49 5.2 14.8 0.34 0.00 1.28 97 1010.4
20260501173155 64 54 7.8 18.2 0.32 0.00 1.25 97 1010.3
20260501172150 64 42 4.3 5.2 0.27 0.00 1.36 97 1009.6
20260501171650 64 43 4.3 6.1 0.27 0.00 1.36 97 1010.0
20260501170649 64 41 5.2 7.0 0.46 0.00 1.32 97 1010.3
20260501170149 64 43 4.3 5.2 0.71 0.00 1.20 97 1010.1
20260501165650 64 50 4.3 4.3 0.76 0.00 1.18 97 1010.1
20260501165150 64 41 5.2 6.1 0.76 0.00 1.16 97 1010.1
20260501164649 64 36 8.7 16.5 0.76 0.00 1.14 97 1010.6
20260501164151 64 52 1.7 3.5 0.64 0.00 1.02 97 1010.7
20260501163650 64 43 1.7 2.6 0.63 0.00 0.99 97 1011.2
20260501163150 64 41 3.5 10.4 0.62 0.00 0.98 97 1010.8